Wind_Speed
44 45 46 43 40 43 43 45 46 50 47 37 31 28 24 24 20 19 20 23 27 33 37 41 43 47 46 43 40 39 38 37 40 41 46 48 48 43 43 44 43 42 40 37
49 50 51 49 45 43 45 43 44 48 49 44 39 36 32 31 30 27 29 27 25 30 31 32 40 42 45 49 48 46 44 44 42 40 42 44 46 50 50 47 45 45 44 42
53 55 54 51 50 53 52 55 53 49 48 47 44 42 42 40 37 33 31 35 34 29 32 30 33 41 44 44 45 47 49 50 48 47 44 43 44 47 47 49 48 47 46 43
57 57 56 54 58 60 58 59 55 52 51 48 47 46 49 48 45 44 40 39 40 37 36 34 31 35 40 43 43 44 45 48 51 51 50 50 48 45 44 46 46 48 47 44
61 60 58 57 60 63 63 59 56 53 53 53 52 50 48 52 52 53 52 47 42 41 40 40 34 31 34 39 43 42 42 46 48 50 51 52 52 49 46 44 43 45 46 46
70 66 64 63 67 69 69 62 63 64 63 61 58 54 53 52 52 56 58 57 50 48 45 44 42 32 34 36 39 41 42 42 44 44 46 46 46 47 47 47 46 44 43 42
80 77 73 71 73 77 79 70 72 73 73 70 68 64 61 56 55 55 56 56 56 51 46 47 42 38 33 36 37 40 40 43 43 42 41 41 41 42 42 45 46 45 46 42
87 86 83 85 82 86 86 83 80 79 81 79 75 72 71 65 58 53 58 57 53 49 47 48 44 43 40 36 39 38 40 40 44 43 42 41 40 41 41 41 44 45 45 47
94 96 94 93 93 92 90 91 91 90 87 83 80 76 73 73 72 68 66 62 58 58 53 48 45 43 46 43 39 39 40 40 42 45 44 41 41 41 39 40 43 45 46 49
85 88 87 90 93 92 92 92 92 92 92 92 88 85 84 85 84 79 74 71 67 65 59 54 52 44 46 46 42 42 40 43 42 42 43 43 41 35 39 43 42 41 43 48
64 66 70 74 76 78 77 80 83 83 85 86 87 87 88 87 87 86 83 79 76 72 68 65 59 49 48 56 51 45 41 42 42 40 39 41 40 37 35 39 42 40 42 44
46 54 58 63 66 67 68 71 72 73 77 79 81 83 86 89 89 89 87 85 81 77 72 69 64 63 57 53 46 45 44 45 42 40 39 38 43 42 38 40 41 39 42 42
32 34 37 39 44 46 46 49 54 58 64 67 71 74 74 79 85 90 89 88 85 81 75 71 67 67 59 50 43 46 50 47 45 45 42 44 45 45 44 42 43 42 41 42
35 38 38 38 36 38 39 39 40 44 48 54 57 57 61 63 68 75 81 77 74 72 72 68 70 66 57 50 43 45 42 44 48 55 49 51 49 44 44 44 44 43 43 41
29 31 35 36 36 38 38 38 39 39 40 45 49 48 49 56 62 66 69 66 62 58 62 60 65 63 51 51 53 43 47 55 54 53 52 49 47 42 42 43 43 44 42 41
18 18 21 26 25 26 27 29 29 31 33 36 37 40 41 46 52 54 58 55 57 57 56 54 59 53 55 56 48 37 36 39 43 50 50 45 43 41 40 41 42 42 40 40
10 11 12 14 17 16 14 14 18 19 19 17 17 19 25 33 39 44 47 45 45 44 49 55 59 66 60 63 50 41 41 49 50 53 51 42 38 39 39 40 41 39 38 38
10 9 10 8 7 5 4 5 7 8 8 9 12 15 18 25 32 36 40 41 43 48 49 55 65 76 72 65 58 57 58 45 44 47 41 37 37 36 37 38 37 35 34 36
11 11 9 8 9 8 6 5 3 2 4 7 11 13 16 19 23 29 36 40 39 37 50 59 77 82 78 73 68 61 49 48 46 46 38 35 31 32 34 27 25 24 27 31
17 15 18 16 13 11 10 11 8 5 4 5 6 12 16 18 22 26 29 31 32 39 47 60 81 84 75 77 71 61 49 48 50 52 48 37 33 31 27 26 29 24 23 26
19 17 29 29 8 7 8 8 11 13 10 5 2 2 9 15 17 22 26 26 29 34 39 54 80 87 85 81 64 62 61 52 48 47 48 44 37 35 33 33 30 32 32 34
21 21 12 5 6 12 12 10 8 10 12 7 4 1 6 12 15 15 19 26 31 32 37 46 60 73 78 75 63 58 55 47 41 42 48 46 43 42 43 39 37 36 37 36
4 6 5 7 10 13 17 16 17 19 19 17 13 9 6 9 17 14 22 26 31 33 34 41 52 65 66 59 48 42 38 36 39 44 45 44 47 42 42 42 39 39 36 34
5 6 3 13 18 19 17 11 15 17 19 19 19 16 18 21 19 23 24 26 28 33 39 42 41 46 43 39 34 31 30 33 40 43 46 49 43 36 35 37 39 37 35 34
7 5 12 22 23 17 14 11 15 18 21 19 19 17 19 24 31 37 40 42 44 43 46 43 36 31 30 24 23 25 28 34 42 45 42 41 44 43 42 39 40 37 39 39
1 7 17 17 15 15 15 6 19 19 20 19 23 26 30 29 37 48 54 50 47 44 43 38 33 29 35 25 24 27 28 28 34 41 45 46 46 45 46 45 43 44 43 40
1 8 14 16 14 14 13 12 13 15 21 20 20 18 17 21 33 43 46 42 44 46 43 39 38 43 41 36 31 19 32 30 33 35 37 40 44 44 44 45 46 43 42 41
Wind_Direction
258 262 266 267 268 268 269 270 269 269 272 264 260 257 259 264 262 258 254 254 262 263 256 254 251 250 248 246 246 246 247 246 243 244 246 246 246 246 247 246 249 251 257 262
259 261 265 268 271 271 270 266 264 267 268 268 263 257 257 253 252 256 261 267 268 272 271 263 254 249 249 248 247 248 247 248 249 247 246 247 248 247 247 248 249 253 257 259
258 258 259 263 264 260 262 263 265 265 269 270 265 262 260 259 261 260 263 265 266 265 269 269 261 254 248 247 247 248 248 248 249 251 251 250 250 250 249 248 249 251 253 257
257 256 257 258 260 261 259 262 264 266 268 267 267 261 261 262 260 259 258 258 261 262 263 269 269 262 256 252 251 250 251 249 248 249 251 252 253 253 253 254 253 250 250 253
257 256 258 261 259 261 261 262 265 266 265 263 263 262 260 260 257 258 258 256 260 265 263 267 269 270 265 256 251 251 252 250 248 249 250 252 252 254 256 255 255 254 252 249
260 256 253 253 259 259 262 262 263 264 266 266 262 259 259 258 259 260 261 262 259 260 261 260 265 269 265 259 253 251 251 252 248 248 251 253 255 256 256 254 253 251 246 242
259 258 256 252 253 257 258 260 264 266 265 265 264 261 260 259 258 260 261 261 261 258 256 255 259 268 264 265 259 252 250 250 249 246 248 252 254 255 255 253 252 250 245 238
261 261 260 258 254 254 257 258 259 261 263 263 262 262 260 257 253 251 253 255 256 255 250 250 255 265 266 267 260 255 250 250 250 249 248 249 250 251 252 253 252 249 246 237
260 262 261 259 258 256 255 254 255 256 256 255 257 256 255 255 255 252 249 249 245 246 245 246 249 263 267 265 266 257 250 246 249 248 248 249 252 253 252 250 250 248 242 238
259 259 259 260 259 259 258 258 258 257 254 253 252 253 254 255 254 254 253 251 249 247 248 249 253 254 258 265 272 261 253 250 248 250 250 249 252 254 250 248 247 245 242 241
263 262 261 260 259 259 257 255 253 253 252 250 249 249 248 249 251 252 251 250 248 245 244 246 250 250 236 249 262 253 251 255 254 251 254 254 252 255 254 251 250 246 243 243
261 259 256 257 258 258 255 253 254 253 253 254 252 249 247 249 249 250 250 251 249 248 245 246 246 248 246 243 248 239 246 253 255 250 253 252 253 255 257 258 256 254 249 245
275 276 270 265 265 263 260 257 255 254 254 254 252 253 250 247 247 248 249 248 248 249 248 247 247 246 242 241 239 233 235 244 252 248 252 252 257 255 259 258 261 259 259 252
267 267 267 265 265 264 262 257 252 251 250 251 250 249 249 249 247 246 248 249 248 247 245 243 245 243 238 228 221 228 236 241 243 250 260 257 258 257 255 256 262 262 262 261
269 267 266 264 260 261 262 261 259 255 254 255 255 254 249 247 246 246 247 245 242 238 238 234 236 232 227 219 213 225 238 230 237 249 260 261 257 255 255 253 258 263 264 262
288 275 271 275 275 269 265 262 259 255 253 251 255 255 251 247 245 241 240 237 234 232 230 224 222 218 206 204 201 216 227 231 237 245 251 255 254 252 252 250 255 260 263 264
322 313 305 286 281 278 267 262 258 252 251 259 257 255 250 243 239 232 228 227 223 215 212 210 207 192 194 188 191 204 224 234 237 246 250 253 255 254 249 247 251 258 262 264
5 3 2 1 350 329 271 260 258 255 246 237 239 247 245 235 227 223 218 216 213 210 201 203 192 189 194 194 202 210 219 227 236 243 249 252 255 252 247 246 251 259 262 262
32 33 38 40 42 58 67 83 107 243 252 243 248 244 236 225 219 216 213 214 215 212 205 198 190 195 196 202 200 204 215 222 231 238 239 244 245 246 245 246 249 256 262 263
63 65 75 67 65 72 81 84 70 35 345 313 254 234 234 226 216 216 217 208 207 207 200 198 193 194 200 196 203 207 217 218 229 238 239 232 233 228 229 243 254 261 267 264
54 48 63 358 41 86 129 98 83 77 59 54 117 235 226 222 210 212 212 207 204 202 194 193 195 193 197 198 201 206 213 213 225 237 233 233 226 226 231 241 252 266 268 271
35 48 18 172 154 103 81 65 57 68 65 50 32 10 190 189 175 178 191 195 197 191 187 188 186 190 194 198 198 207 208 215 222 232 234 239 233 238 241 251 258 266 270 272
3 70 35 57 64 72 65 61 76 79 74 72 75 78 121 159 174 170 166 176 186 186 182 171 180 180 183 190 196 200 211 223 230 226 232 239 240 247 251 253 259 264 267 266
52 60 131 108 92 79 61 72 88 88 81 82 83 90 123 148 158 146 152 162 167 169 163 164 163 168 173 179 187 202 218 232 223 228 237 233 237 242 247 252 256 257 263 267
42 64 122 118 97 62 57 86 78 85 93 95 95 105 126 135 137 137 139 141 143 146 148 149 154 158 163 170 190 206 219 226 226 227 234 236 236 239 249 255 259 263 264 265
166 110 150 131 102 105 97 52 98 97 95 105 119 120 134 143 148 147 148 146 149 150 153 146 155 169 171 182 219 220 227 224 223 229 236 243 247 247 252 259 261 270 270 270
140 171 162 157 146 122 113 144 138 113 113 116 138 141 146 153 160 160 165 165 161 160 166 171 173 181 190 197 204 252 230 233 243 249 252 247 247 253 258 262 264 261 263 267
Height
10841 10838 10836 10840 10842 10840 10842 10842 10842 10839 10843 10855 10862 10865 10869 10870 10872 10873 10875 10874 10873 10874 10876 10876 10880 10882 10887 10890 10894 10898 10901 10905 10907 10910 10914 10918 10922 10925 10928 10931 10934 10937 10940 10943
10829 10826 10824 10825 10829 10828 10824 10826 10829 10826 10829 10841 10849 10855 10857 10860 10862 10864 10864 10863 10862 10863 10864 10864 10866 10868 10873 10877 10882 10885 10889 10892 10895 10899 10904 10907 10910 10914 10918 10922 10925 10929 10933 10937
10812 10808 10810 10814 10812 10809 10808 10805 10812 10818 10819 10825 10836 10841 10843 10846 10848 10851 10852 10850 10851 10854 10854 10854 10855 10857 10859 10863 10867 10871 10875 10879 10883 10887 10891 10895 10898 10902 10906 10911 10915 10919 10924 10929
10791 10791 10797 10798 10792 10789 10793 10793 10800 10806 10807 10811 10816 10824 10827 10831 10835 10837 10839 10839 10841 10842 10844 10846 10846 10846 10849 10852 10854 10859 10862 10865 10869 10874 10878 10882 10886 10891 10896 10900 10905 10909 10914 10919
10772 10777 10781 10781 10773 10772 10774 10781 10786 10789 10792 10796 10799 10805 10810 10812 10815 10817 10821 10826 10830 10831 10831 10833 10836 10838 10838 10841 10841 10845 10849 10850 10854 10858 10863 10867 10873 10880 10885 10890 10893 10896 10901 10907
10747 10755 10762 10762 10756 10755 10755 10768 10766 10768 10771 10776 10782 10788 10791 10794 10797 10799 10803 10806 10813 10818 10820 10821 10823 10828 10828 10829 10829 10832 10834 10837 10840 10843 10847 10853 10859 10865 10871 10876 10879 10882 10886 10894
10720 10725 10734 10741 10740 10735 10733 10755 10746 10747 10749 10754 10758 10768 10775 10780 10782 10785 10787 10787 10791 10799 10807 10808 10810 10812 10816 10818 10819 10821 10823 10825 10827 10829 10833 10839 10845 10850 10856 10860 10862 10866 10870 10878
10690 10695 10704 10706 10716 10714 10717 10725 10731 10728 10724 10731 10736 10744 10748 10758 10763 10768 10769 10770 10774 10780 10787 10793 10798 10801 10803 10806 10806 10809 10813 10816 10818 10821 10824 10827 10831 10835 10841 10846 10850 10853 10856 10860
10663 10663 10671 10675 10677 10683 10690 10695 10700 10705 10704 10706 10714 10721 10725 10730 10736 10745 10749 10752 10757 10761 10770 10779 10783 10789 10790 10792 10794 10797 10800 10804 10806 10810 10814 10818 10820 10823 10827 10831 10833 10839 10842 10844
10632 10632 10642 10642 10643 10651 10656 10662 10667 10677 10681 10682 10691 10695 10698 10704 10711 10718 10725 10729 10739 10745 10754 10763 10768 10773 10778 10780 10783 10787 10790 10793 10795 10798 10805 10809 10811 10814 10815 10816 10818 10823 10827 10831
10611 10614 10615 10615 10617 10618 10624 10629 10634 10639 10644 10652 10661 10668 10673 10677 10683 10692 10697 10703 10712 10722 10733 10743 10751 10760 10763 10767 10772 10777 10779 10782 10786 10788 10791 10798 10802 10803 10804 10806 10808 10812 10816 10818
10588 10585 10588 10587 10589 10592 10598 10602 10606 10612 10617 10622 10631 10639 10646 10653 10660 10665 10670 10675 10686 10697 10711 10722 10732 10736 10745 10752 10758 10762 10769 10777 10775 10776 10778 10785 10790 10793 10794 10796 10799 10801 10805 10808
10576 10573 10572 10574 10572 10574 10578 10582 10587 10591 10592 10598 10605 10610 10618 10626 10631 10633 10639 10648 10658 10672 10689 10701 10709 10714 10725 10734 10743 10750 10757 10765 10767 10768 10770 10776 10780 10782 10784 10786 10789 10791 10794 10797
10564 10560 10559 10558 10560 10560 10561 10565 10569 10572 10574 10576 10581 10589 10594 10599 10604 10608 10610 10620 10634 10650 10663 10679 10686 10694 10706 10719 10727 10734 10742 10751 10757 10760 10763 10766 10769 10770 10772 10776 10780 10782 10784 10786
10550 10550 10546 10545 10546 10546 10548 10551 10553 10556 10560 10561 10563 10568 10574 10576 10579 10583 10586 10596 10609 10625 10638 10656 10664 10674 10691 10704 10712 10723 10729 10735 10741 10747 10750 10753 10756 10758 10760 10765 10769 10772 10774 10776
10543 10540 10538 10535 10536 10537 10538 10540 10542 10543 10544 10546 10549 10553 10554 10554 10556 10562 10566 10575 10587 10602 10616 10633 10643 10659 10676 10688 10703 10715 10719 10723 10729 10734 10738 10742 10743 10745 10749 10754 10758 10761 10763 10765
10540 10538 10535 10534 10531 10531 10532 10533 10534 10536 10536 10539 10540 10541 10542 10542 10541 10543 10550 10562 10574 10585 10596 10607 10623 10647 10661 10673 10690 10697 10707 10713 10717 10721 10725 10729 10731 10734 10738 10743 10747 10749 10752 10753
10539 10537 10535 10533 10530 10529 10529 10531 10533 10533 10534 10534 10534 10533 10532 10532 10531 10534 10544 10555 10564 10570 10579 10589 10608 10631 10649 10662 10676 10688 10696 10702 10706 10708 10715 10718 10721 10724 10728 10733 10737 10738 10740 10741
10540 10538 10536 10535 10533 10531 10530 10531 10531 10531 10531 10531 10530 10529 10529 10529 10531 10535 10540 10547 10556 10567 10573 10581 10600 10619 10633 10650 10663 10677 10687 10693 10695 10698 10703 10707 10711 10715 10720 10724 10727 10727 10729 10730
10544 10542 10540 10540 10538 10535 10533 10532 10532 10531 10530 10529 10529 10528 10529 10528 10529 10533 10537 10541 10548 10555 10566 10577 10592 10609 10623 10640 10654 10667 10674 10680 10685 10688 10692 10699 10701 10705 10710 10714 10716 10717 10719 10720
10549 10547 10546 10553 10543 10539 10536 10535 10533 10530 10529 10527 10525 10524 10524 10526 10529 10532 10536 10540 10545 10551 10560 10573 10584 10598 10614 10630 10641 10650 10659 10668 10674 10678 10682 10690 10694 10696 10699 10703 10706 10708 10709 10711
10551 10550 10551 10548 10544 10540 10538 10537 10534 10531 10529 10526 10524 10523 10523 10525 10528 10531 10535 10540 10543 10550 10556 10565 10579 10592 10605 10620 10630 10640 10651 10659 10665 10669 10674 10680 10684 10687 10691 10694 10698 10699 10699 10699
10550 10551 10551 10550 10548 10546 10543 10542 10539 10535 10532 10529 10526 10524 10524 10527 10530 10533 10535 10540 10545 10552 10560 10571 10580 10588 10603 10620 10633 10640 10648 10654 10658 10660 10665 10670 10675 10677 10681 10686 10688 10689 10688 10687
10552 10554 10553 10552 10552 10552 10551 10547 10542 10539 10537 10534 10531 10532 10530 10531 10534 10536 10541 10546 10554 10560 10568 10578 10587 10595 10606 10617 10626 10634 10641 10646 10649 10654 10656 10662 10666 10669 10672 10674 10676 10678 10678 10678
10557 10556 10556 10558 10558 10557 10555 10553 10551 10548 10545 10543 10542 10542 10542 10543 10545 10547 10551 10556 10560 10568 10575 10584 10592 10599 10607 10614 10620 10628 10635 10638 10642 10645 10648 10652 10656 10659 10661 10664 10665 10665 10666 10666
10559 10559 10560 10561 10559 10557 10558 10560 10556 10554 10552 10552 10550 10552 10555 10555 10557 10559 10561 10563 10567 10571 10577 10585 10593 10599 10606 10614 10620 10623 10626 10629 10633 10636 10639 10642 10645 10647 10650 10652 10653 10653 10654 10655
10561 10561 10561 10561 10561 10559 10558 10559 10560 10559 10558 10558 10559 10560 10562 10564 10567 10569 10571 10573 10575 10576 10579 10584 10590 10596 10602 10609 10617 10622 10620 10620 10623 10627 10630 10632 10635 10637 10639 10641 10640 10640 10640 10641